Blattenbach Aussen Messungen

Zurück zum Überblick

Zeitpunkt Temperatur Temperatur Kabelsensor Luftfeuchte
21.01.2019 22:01:25 0,6 C 2,7 C 76,0%
21.01.2019 21:54:25 0,9 C 2,7 C 75,0%
21.01.2019 21:47:27 1,0 C 2,7 C 75,0%
21.01.2019 21:40:28 0,9 C 2,7 C 75,0%
21.01.2019 21:33:26 0,8 C 2,7 C 75,0%
21.01.2019 21:26:28 0,8 C 2,7 C 75,0%
21.01.2019 21:19:25 1,0 C 2,7 C 75,0%
21.01.2019 21:12:26 1,1 C 2,7 C 75,0%
21.01.2019 21:05:28 1,0 C 2,7 C 75,0%
21.01.2019 20:58:28 1,0 C 2,7 C 76,0%
21.01.2019 20:51:26 0,9 C 2,7 C 75,0%
21.01.2019 20:44:25 0,9 C 2,7 C 75,0%
21.01.2019 20:37:25 0,8 C 2,7 C 76,0%
21.01.2019 20:30:24 0,9 C 2,7 C 76,0%
21.01.2019 20:23:26 0,8 C 2,7 C 76,0%
21.01.2019 20:16:28 0,6 C 2,6 C 76,0%
21.01.2019 20:09:28 0,5 C 2,6 C 76,0%
21.01.2019 20:02:25 0,4 C 2,6 C 76,0%
21.01.2019 19:55:26 0,2 C 2,6 C 76,0%
21.01.2019 19:48:25 0,1 C 2,6 C 77,0%
21.01.2019 19:41:24 0,0 C 2,6 C 77,0%
21.01.2019 19:34:25 0,0 C 2,6 C 76,0%
21.01.2019 19:27:25 0,0 C 2,6 C 76,0%
21.01.2019 19:20:27 0,0 C 2,6 C 76,0%
21.01.2019 19:13:24 0,0 C 2,6 C 77,0%
21.01.2019 19:06:28 -0,1 C 2,6 C 76,0%
21.01.2019 18:59:28 -0,2 C 2,6 C 77,0%
21.01.2019 18:52:23 -0,4 C 2,6 C 76,0%
21.01.2019 18:45:27 -0,5 C 2,6 C 76,0%
21.01.2019 18:38:28 -0,5 C 2,6 C 75,0%
21.01.2019 18:31:27 -0,4 C 2,6 C 75,0%
21.01.2019 18:24:26 -0,4 C 2,7 C 75,0%
21.01.2019 18:17:27 -0,4 C 2,7 C 76,0%
21.01.2019 18:10:25 -0,5 C 2,7 C 76,0%
21.01.2019 18:03:27 -0,5 C 2,7 C 75,0%
21.01.2019 17:56:26 -0,4 C 2,7 C 75,0%
21.01.2019 17:49:26 -0,3 C 2,7 C 75,0%
21.01.2019 17:42:28 -0,2 C 2,7 C 74,0%
21.01.2019 17:35:24 0,0 C 2,7 C 74,0%
21.01.2019 17:28:25 0,0 C 2,7 C 73,0%
21.01.2019 17:21:24 0,2 C 2,7 C 72,0%
21.01.2019 17:14:24 0,4 C 2,7 C 72,0%
21.01.2019 17:07:26 0,8 C 2,7 C 71,0%
21.01.2019 17:00:27 1,1 C 2,7 C 71,0%
21.01.2019 16:53:25 1,3 C 2,7 C 70,0%
21.01.2019 16:46:27 1,6 C 2,8 C 70,0%
21.01.2019 16:39:27 1,6 C 2,8 C 70,0%
21.01.2019 16:32:26 1,8 C 2,8 C 69,0%
21.01.2019 16:25:26 2,4 C 2,8 C 69,0%
21.01.2019 16:18:25 2,6 C 2,8 C 68,0%